DW4604 Weather Reports


time (UTC)temp
C
wind
direction
speed
KPH
gust
KPH
rain 1hr
cm
rain 24hr
cm
rain mn
cm
humidity
%
barometer
mb
20260507003951 14 0 0.0 0.0 0.00 0.00 0.00 78 1005.2
20260507003451 14 0 0.0 0.0 0.00 0.00 0.00 78 1005.3
20260507002951 14 0 0.0 0.0 0.00 0.00 0.00 78 1005.2
20260507002452 14 0 0.0 0.0 0.00 0.00 0.00 77 1005.2
20260507001951 15 0 0.0 0.0 0.00 0.00 0.00 77 1005.2
20260507001451 15 0 0.0 0.0 0.00 0.00 0.00 77 1005.1
20260507000950 15 0 0.0 0.0 0.00 0.00 0.00 76 1005.1
20260507000451 15 0 0.0 0.0 0.00 0.00 0.00 75 1005.2
20260506235951 16 0 0.0 0.0 0.00 0.00 0.00 74 1005.2
20260506235450 16 0 0.0 0.0 0.00 0.00 0.00 73 1005.2
20260506233950 16 0 0.0 0.0 0.00 0.00 0.00 72 1005.3
20260506233451 16 0 0.0 0.0 0.00 0.00 0.00 72 1005.2
20260506232952 16 0 0.0 0.0 0.00 0.00 0.00 71 1005.2
20260506231951 17 0 0.0 0.0 0.00 0.00 0.00 70 1005.3
20260506231450 17 0 0.0 0.0 0.00 0.00 0.00 69 1005.2
20260506230952 17 0 0.0 0.0 0.00 0.00 0.00 69 1005.3
20260506230451 17 0 0.0 0.0 0.00 0.00 0.00 69 1005.3
20260506225951 17 0 0.0 0.0 0.00 0.00 0.00 68 1005.3
20260506225451 17 0 0.0 0.0 0.00 0.00 0.00 68 1005.3
20260506224950 18 0 0.0 0.0 0.00 0.00 0.00 68 1005.3
20260506224450 18 0 0.0 0.0 0.00 0.00 0.00 68 1005.3
20260506223952 17 0 0.0 0.0 0.00 0.00 0.00 68 1005.2
20260506223451 17 0 0.0 0.0 0.00 0.00 0.00 69 1005.3
20260506222952 17 0 0.0 0.0 0.00 0.00 0.00 69 1005.3
20260506221951 16 0 0.0 0.0 0.00 0.00 0.00 71 1005.3
20260506221451 16 0 0.0 0.0 0.00 0.00 0.00 71 1005.2
20260506220951 16 0 0.0 0.0 0.00 0.00 0.00 71 1005.1
20260506220453 16 0 0.0 0.0 0.00 0.00 0.00 72 1005.1
20260506215952 16 0 0.0 0.0 0.00 0.00 0.00 73 1005.2
20260506215452 16 0 0.0 0.0 0.00 0.00 0.00 74 1005.2
20260506214952 16 0 0.0 0.0 0.00 0.00 0.00 75 1005.2
20260506214452 16 0 0.0 0.0 0.00 0.00 0.00 74 1005.2
20260506213452 16 0 0.0 0.0 0.00 0.00 0.00 73 1005.2
20260506212952 16 0 0.0 0.0 0.00 0.00 0.00 72 1005.2
20260506212451 16 0 0.0 0.0 0.00 0.00 0.00 72 1005.3
20260506210951 16 0 0.0 0.0 0.00 0.00 0.00 71 1005.3
20260506210451 17 0 0.0 0.0 0.00 0.00 0.00 70 1005.3
20260506205452 17 0 0.0 0.0 0.00 0.00 0.00 68 1005.2
20260506204951 17 0 0.0 0.0 0.00 0.00 0.00 68 1005.2
20260506204452 17 0 0.0 0.0 0.00 0.00 0.00 68 1005.1
20260506203951 17 0 0.0 0.0 0.00 0.00 0.00 68 1005.1
20260506202453 18 0 0.0 0.0 0.00 0.00 0.00 65 1005.1
20260506201952 18 0 0.0 0.0 0.00 0.00 0.00 65 1005.0
20260506201452 18 0 0.0 0.0 0.00 0.00 0.00 66 1004.9
20260506200951 18 0 0.0 0.0 0.00 0.00 0.00 66 1004.9
20260506200451 18 0 0.0 0.0 0.00 0.00 0.00 65 1004.9
20260506195452 18 0 0.0 0.0 0.00 0.00 0.00 66 1004.9
20260506194952 18 0 0.0 0.0 0.00 0.00 0.00 67 1004.9
20260506194452 17 0 0.0 0.0 0.00 0.00 0.00 68 1004.9
20260506193451 17 0 0.0 0.0 0.00 0.00 0.00 68 1004.9
20260506192951 17 0 0.0 0.0 0.00 0.00 0.00 69 1004.8
20260506192453 17 0 0.0 0.0 0.00 0.00 0.00 70 1004.8
20260506191952 17 0 0.0 0.0 0.00 0.00 0.00 70 1004.8
20260506191452 17 0 0.0 0.0 0.00 0.00 0.00 69 1004.8
20260506190952 17 0 0.0 0.0 0.00 0.00 0.00 68 1004.8
20260506190452 18 0 0.0 0.0 0.00 0.00 0.00 67 1004.8
20260506185453 18 0 0.0 0.0 0.00 0.00 0.00 68 1004.7
20260506184952 18 0 0.0 0.0 0.00 0.00 0.00 66 1004.7
20260506184452 18 0 0.0 0.0 0.00 0.00 0.00 64 1004.6
20260506183952 19 0 0.0 0.0 0.00 0.00 0.00 63 1004.6
20260506182953 20 0 0.0 0.0 0.00 0.00 0.00 60 1004.4
20260506182453 20 0 0.0 0.0 0.00 0.00 0.00 59 1004.4
20260506181953 20 0 0.0 0.0 0.00 0.00 0.00 59 1004.3
20260506181452 20 0 0.0 0.0 0.00 0.00 0.00 58 1004.3
20260506180952 20 0 0.0 0.0 0.00 0.00 0.00 58 1004.3
20260506180453 20 0 0.0 0.0 0.00 0.00 0.00 58 1004.3
20260506175952 21 0 0.0 0.0 0.00 0.00 0.00 57 1004.3
20260506174952 21 0 0.0 0.0 0.00 0.00 0.00 56 1004.3
20260506174452 21 0 0.0 0.0 0.00 0.00 0.00 56 1004.2
20260506173954 21 0 0.0 0.0 0.00 0.00 0.00 56 1004.2
20260506172952 21 0 0.0 0.0 0.00 0.00 0.00 55 1004.3
20260506172452 21 0 0.0 0.0 0.00 0.00 0.00 56 1004.3
20260506171952 21 0 0.0 0.0 0.00 0.00 0.00 56 1004.3
20260506171452 21 0 0.0 0.0 0.00 0.00 0.00 59 1004.4
20260506170952 21 0 0.0 0.0 0.00 0.00 0.00 59 1004.4
20260506170452 21 0 0.0 0.0 0.00 0.00 0.00 59 1004.4
20260506165453 21 0 0.0 0.0 0.00 0.00 0.00 60 1004.4
20260506164952 21 0 0.0 0.0 0.00 0.00 0.00 60 1004.3
20260506164453 21 0 0.0 0.0 0.00 0.00 0.00 58 1004.3
20260506163952 21 0 0.0 0.0 0.00 0.00 0.00 58 1004.3
20260506162953 21 0 0.0 0.0 0.00 0.00 0.00 55 1004.5
20260506162452 22 0 0.0 0.0 0.00 0.00 0.00 55 1004.6
20260506161953 22 0 0.0 0.0 0.00 0.00 0.00 52 1004.6
20260506161452 23 0 0.0 0.0 0.00 0.00 0.00 50 1004.5
20260506160952 23 0 0.0 0.0 0.00 0.00 0.00 51 1004.5
20260506160453 23 0 0.0 0.0 0.00 0.00 0.00 49 1004.4
20260506155953 23 0 0.0 0.0 0.00 0.00 0.00 50 1004.5
20260506155452 23 0 0.0 0.0 0.00 0.00 0.00 47 1004.5
20260506154952 24 0 0.0 0.0 0.00 0.00 0.00 48 1004.6
20260506154453 24 0 0.0 0.0 0.00 0.00 0.00 47 1004.5
20260506153952 24 0 0.0 0.0 0.00 0.00 0.00 47 1004.6
20260506152452 24 0 0.0 0.0 0.00 0.00 0.00 45 1004.7
20260506151453 25 0 0.0 0.0 0.00 0.00 0.00 45 1004.7
20260506150954 25 0 0.0 0.0 0.00 0.00 0.00 45 1004.7
20260506145952 25 0 0.0 0.0 0.00 0.00 0.00 47 1004.8
20260506145453 24 0 0.0 0.0 0.00 0.00 0.00 45 1004.9
20260506144952 25 0 0.0 0.0 0.00 0.00 0.00 44 1004.9
20260506144453 25 0 0.0 0.0 0.00 0.00 0.00 44 1005.0
20260506143954 26 0 0.0 0.0 0.00 0.00 0.00 43 1005.0
20260506143453 26 0 0.0 0.0 0.00 0.00 0.00 44 1005.0
20260506142953 25 0 0.0 0.0 0.00 0.00 0.00 45 1005.1
20260506142453 25 0 0.0 0.0 0.00 0.00 0.00 45 1005.1
20260506141952 25 0 0.0 0.0 0.00 0.00 0.00 44 1005.1
20260506141452 25 0 0.0 0.0 0.00 0.00 0.00 43 1005.2
20260506140452 26 0 0.0 0.0 0.00 0.00 0.00 43 1005.1
20260506135952 26 0 0.0 0.0 0.00 0.00 0.00 44 1005.2
20260506134453 26 0 0.0 0.0 0.00 0.00 0.00 45 1005.2
20260506133953 26 0 0.0 0.0 0.00 0.00 0.00 43 1005.3
20260506133453 25 0 0.0 0.0 0.00 0.00 0.00 43 1005.4
20260506132953 25 0 0.0 0.0 0.00 0.00 0.00 42 1005.4
20260506132453 26 0 0.0 0.0 0.00 0.00 0.00 45 1005.4
20260506131953 25 0 0.0 0.0 0.00 0.00 0.00 47 1005.4
20260506131454 26 0 0.0 0.0 0.00 0.00 0.00 46 1005.4
20260506130953 26 0 0.0 0.0 0.00 0.00 0.00 45 1005.4
20260506130454 26 0 0.0 0.0 0.00 0.00 0.00 45 1005.5
20260506125453 25 0 0.0 0.0 0.00 0.00 0.00 48 1005.5
20260506124453 25 0 0.0 0.0 0.00 0.00 0.00 48 1005.7
20260506123953 24 0 0.0 0.0 0.00 0.00 0.00 51 1005.7
20260506123453 24 0 0.0 0.0 0.00 0.00 0.00 48 1005.7
20260506122954 25 0 0.0 0.0 0.00 0.00 0.00 46 1005.7
20260506122454 25 0 0.0 0.0 0.00 0.00 0.00 49 1005.7
20260506121953 25 0 0.0 0.0 0.00 0.00 0.00 49 1005.7
20260506121454 25 0 0.0 0.0 0.00 0.00 0.00 48 1005.6
20260506120953 25 0 0.0 0.0 0.00 0.00 0.00 50 1005.7
20260506120454 25 0 0.0 0.0 0.00 0.00 0.00 48 1005.8
20260506115953 25 0 0.0 0.0 0.00 0.00 0.00 47 1005.6
20260506115454 25 0 0.0 0.0 0.00 0.00 0.00 48 1005.7
20260506114953 25 0 0.0 0.0 0.00 0.00 0.00 47 1005.8
20260506114454 25 0 0.0 0.0 0.00 0.00 0.00 50 1005.6
20260506113953 25 0 0.0 0.0 0.00 0.00 0.00 49 1005.7
20260506113454 25 0 0.0 0.0 0.00 0.00 0.00 48 1005.7
20260506112953 25 0 0.0 0.0 0.00 0.00 0.00 50 1005.7
20260506112454 25 0 0.0 0.0 0.00 0.00 0.00 50 1005.7
20260506111954 25 0 0.0 0.0 0.00 0.00 0.00 51 1005.6
20260506111453 25 0 0.0 0.0 0.00 0.00 0.00 52 1005.6
20260506110953 24 0 0.0 0.0 0.00 0.00 0.00 50 1005.7
20260506110453 24 0 0.0 0.0 0.00 0.00 0.00 52 1005.8
20260506105953 24 0 0.0 0.0 0.00 0.00 0.00 50 1005.9
20260506105453 24 0 0.0 0.0 0.00 0.00 0.00 50 1005.8
20260506104955 23 0 0.0 0.0 0.00 0.00 0.00 50 1005.9
20260506104454 24 0 0.0 0.0 0.00 0.00 0.00 49 1005.8
20260506103954 24 0 0.0 0.0 0.00 0.00 0.00 51 1005.8
20260506102954 24 0 0.0 0.0 0.00 0.00 0.00 50 1005.8
20260506102453 24 0 0.0 0.0 0.00 0.00 0.00 55 1005.9
20260506101953 23 0 0.0 0.0 0.00 0.00 0.00 54 1005.8
20260506100953 22 0 0.0 0.0 0.00 0.00 0.00 57 1005.9
20260506100453 22 0 0.0 0.0 0.00 0.00 0.00 58 1005.9
20260506095454 23 0 0.0 0.0 0.00 0.00 0.00 56 1005.9
20260506094454 24 0 0.0 0.0 0.00 0.00 0.00 54 1005.9
20260506093953 23 0 0.0 0.0 0.00 0.00 0.00 54 1005.7
20260506093453 23 0 0.0 0.0 0.00 0.00 0.00 54 1005.7
20260506092954 23 0 0.0 0.0 0.00 0.00 0.00 55 1005.7
20260506092454 23 0 0.0 0.0 0.00 0.00 0.00 55 1005.7
20260506091954 23 0 0.0 0.0 0.00 0.00 0.00 54 1005.7
20260506091454 22 0 0.0 0.0 0.00 0.00 0.00 56 1005.6
20260506090954 23 0 0.0 0.0 0.00 0.00 0.00 55 1005.6
20260506090455 23 0 0.0 0.0 0.00 0.00 0.00 58 1005.6
20260506085954 22 0 0.0 0.0 0.00 0.00 0.00 57 1005.6
20260506085455 22 0 0.0 0.0 0.00 0.00 0.00 57 1005.6
20260506084953 22 0 0.0 0.0 0.00 0.00 0.00 58 1005.7
20260506083954 22 0 0.0 0.0 0.00 0.00 0.00 59 1005.6
20260506082954 22 0 0.0 0.0 0.00 0.00 0.00 59 1005.5
20260506082455 21 0 0.0 0.0 0.00 0.00 0.00 62 1005.5
20260506081453 21 0 0.0 0.0 0.00 0.00 0.00 61 1005.6
20260506080955 21 0 0.0 0.0 0.00 0.00 0.00 62 1005.7
20260506080454 21 0 0.0 0.0 0.00 0.00 0.00 63 1005.6
20260506073454 20 0 0.0 0.0 0.00 0.00 0.00 63 1005.4
20260506072455 19 0 0.0 0.0 0.00 0.00 0.00 64 1005.4
20260506071954 19 0 0.0 0.0 0.00 0.00 0.00 64 1005.4
20260506071454 19 0 0.0 0.0 0.00 0.00 0.00 63 1005.3
20260506070955 19 0 0.0 0.0 0.00 0.00 0.00 65 1005.4
20260506070454 18 0 0.0 0.0 0.00 0.00 0.00 65 1005.4
20260506062454 18 0 0.0 0.0 0.00 0.00 0.00 66 1005.2
20260506061956 18 0 0.0 0.0 0.00 0.00 0.00 66 1005.2
20260506061455 17 0 0.0 0.0 0.00 0.00 0.00 67 1005.1
20260506050955 15 0 0.0 0.0 0.00 0.00 0.00 72 1004.8
20260506050454 15 0 0.0 0.0 0.00 0.00 0.00 73 1004.8
20260506044454 14 0 0.0 0.0 0.00 0.00 0.00 74 1004.9
20260506043954 14 0 0.0 0.0 0.00 0.00 0.00 75 1004.8
20260506042954 13 0 0.0 0.0 0.00 0.00 0.00 76 1004.9
20260506042455 13 0 0.0 0.0 0.00 0.00 0.00 76 1004.9
20260506041954 13 0 0.0 0.0 0.00 0.00 0.00 76 1004.8
20260506041454 13 0 0.0 0.0 0.00 0.00 0.00 76 1004.8
20260506040454 13 0 0.0 0.0 0.00 0.00 0.00 75 1004.8
20260506035955 13 0 0.0 0.0 0.00 0.00 0.00 75 1004.7
20260506035455 13 0 0.0 0.0 0.00 0.00 0.00 74 1004.8
20260506034955 13 0 0.0 0.0 0.00 0.00 0.00 74 1004.8
20260506033954 14 0 0.0 0.0 0.00 0.00 0.00 72 1004.7
20260506033455 14 0 0.0 0.0 0.00 0.00 0.00 71 1004.7
20260506032455 15 0 0.0 0.0 0.00 0.00 0.00 71 1004.7
20260506031955 15 0 0.0 0.0 0.00 0.00 0.00 70 1004.7
20260506031454 15 0 0.0 0.0 0.00 0.00 0.00 70 1004.7
20260506030955 15 0 0.0 0.0 0.00 0.00 0.00 70 1004.7
20260506030456 15 0 0.0 0.0 0.00 0.00 0.00 69 1004.8
20260506025955 15 0 0.0 0.0 0.00 0.00 0.00 68 1004.6
20260506024955 15 0 0.0 0.0 0.00 0.00 0.00 68 1004.6
20260506024455 15 0 0.0 0.0 0.00 0.00 0.00 68 1004.7
20260506023455 15 0 0.0 0.0 0.00 0.00 0.00 68 1004.8
20260506022955 15 0 0.0 0.0 0.00 0.00 0.00 68 1004.7
20260506021956 15 0 0.0 0.0 0.00 0.00 0.00 68 1004.7
20260506021455 15 0 0.0 0.0 0.00 0.00 0.00 68 1004.7
20260506020455 15 0 0.0 0.0 0.00 0.00 0.00 67 1004.7
20260506015956 15 0 0.0 0.0 0.00 0.00 0.00 66 1004.7
20260506014955 15 0 0.0 0.0 0.00 0.00 0.00 66 1004.5
20260506014455 15 0 0.0 0.0 0.00 0.00 0.00 65 1004.5
20260506013954 15 0 0.0 0.0 0.00 0.00 0.00 65 1004.5
20260506013455 15 0 0.0 0.0 0.00 0.00 0.00 64 1004.5
20260506012955 16 0 0.0 0.0 0.00 0.00 0.00 64 1004.5
20260506011955 16 0 0.0 0.0 0.00 0.00 0.00 64 1004.5
20260506011455 15 0 0.0 0.0 0.00 0.00 0.00 64 1004.5
20260506010955 15 0 0.0 0.0 0.00 0.00 0.00 64 1004.6
20260506010456 15 0 0.0 0.0 0.00 0.00 0.00 66 1004.7
20260506005455 14 0 0.0 0.0 0.00 0.00 0.00 68 1004.7
20260506004955 13 0 0.0 0.0 0.00 0.00 0.00 69 1004.7
20260506004455 13 0 0.0 0.0 0.00 0.00 0.00 69 1004.7